Location: Newark
(44.6028°N, 124.0883°W)
Time: 14:51:17
(UTC+00:00)

Vanguard 1 - Pass Details

Date: 29 October 2019
Orbit: 652 x 3831 km, 34.2° (Epoch: 21 November)

Event Time Altitude Azimuth Distance (km) Brightness Sun altitude
Rises 03:36:57 0° 258° (WSW) 3,676 14.1 -26.5°
Reaches altitude 10° 03:39:13 10° 251° (WSW) 2,971 13.3 -26.9°
Maximum altitude 03:46:07 43° 182° (S) 2,108 11.6 -28.1°
Enters shadow 03:49:28 35° 145° (SE) 2,690 11.9 -28.7°
Drops below altitude 10° 03:58:16 10° 118° (ESE) 5,162 - -30.2°
Sets 04:03:39 0° 113° (ESE) 6,693 - -31.2°
